Location: Hylvaty SDH
(49.9612°N, 16.4057°E)
Time: 12:03:13
(UTC+01:00)

A-11 Canister half - Pass Details

Date: 07 October 2020
Orbit: 1526 x 1683 km, 47.3° (Epoch: 28 October)

Event Time Altitude Azimuth Distance (km) Brightness Sun altitude
Rises 21:46:19 0° 237° (WSW) 4,675 11.8 -32.7°
Reaches altitude 10° 21:49:23 10° 234° (SW) 3,689 11.2 -33.1°
Enters shadow 21:56:32 52° 200° (SSW) 1,843 9.2 -34.0°
Maximum altitude 21:58:26 61° 158° (SSE) 1,709 - -34.2°
Drops below altitude 10° 22:07:37 10° 81° (E) 3,737 - -35.4°
Sets 22:10:45 0° 78° (ENE) 4,739 - -35.8°
